TimeCDT,TemperatureF,Dew PointF,Humidity,Sea Level PressureIn,VisibilityMPH,Wind Direction,Wind SpeedMPH,Gust SpeedMPH,PrecipitationIn,Events,Conditions,WindDirDegrees,DateUTC
12:53 AM,33.1,27.0,78,30.42,10.0,SE,4.6,-,N/A,,Clear,130,2013-03-27 05:53:00
1:53 AM,30.9,26.1,82,30.42,10.0,SE,3.5,-,N/A,,Clear,130,2013-03-27 06:53:00
2:53 AM,28.0,26.1,92,30.42,10.0,Calm,Calm,-,N/A,,Clear,0,2013-03-27 07:53:00
3:53 AM,28.0,25.0,88,30.41,10.0,Calm,Calm,-,N/A,,Clear,0,2013-03-27 08:53:00
4:53 AM,27.0,25.0,92,30.41,10.0,Calm,Calm,-,N/A,,Clear,0,2013-03-27 09:53:00
5:53 AM,25.0,23.0,92,30.43,10.0,Calm,Calm,-,N/A,,Clear,0,2013-03-27 10:53:00
6:53 AM,26.1,24.1,92,30.45,9.0,Calm,Calm,-,N/A,,Clear,0,2013-03-27 11:53:00
7:05 AM,24.8,24.8,100,30.42,1.5,Calm,Calm,-,N/A,,Clear,0,2013-03-27 12:05:00
7:15 AM,28.4,24.8,86,30.42,4.0,ESE,3.5,-,N/A,,Clear,120,2013-03-27 12:15:00
7:53 AM,34.0,30.9,89,30.45,10.0,Calm,Calm,-,N/A,,Clear,0,2013-03-27 12:53:00
8:53 AM,42.1,30.0,62,30.48,10.0,SE,4.6,-,N/A,,Clear,130,2013-03-27 13:53:00
9:53 AM,46.9,27.0,46,30.49,10.0,SSE,8.1,-,N/A,,Clear,160,2013-03-27 14:53:00
10:53 AM,50.0,26.1,39,30.48,10.0,ESE,6.9,-,N/A,,Clear,120,2013-03-27 15:53:00
11:53 AM,53.1,28.0,38,30.48,10.0,SSE,5.8,-,N/A,,Clear,160,2013-03-27 16:53:00
12:53 PM,55.9,25.0,30,30.46,10.0,Calm,Calm,-,N/A,,Clear,0,2013-03-27 17:53:00
1:53 PM,55.9,26.1,32,30.41,10.0,Calm,Calm,-,N/A,,Clear,0,2013-03-27 18:53:00
2:53 PM,57.9,23.0,26,30.38,10.0,Variable,3.5,-,N/A,,Clear,0,2013-03-27 19:53:00
3:53 PM,60.1,23.0,24,30.35,10.0,NNE,5.8,-,N/A,,Clear,30,2013-03-27 20:53:00
4:53 PM,59.0,21.9,24,30.33,10.0,Calm,Calm,-,N/A,,Clear,0,2013-03-27 21:53:00
5:53 PM,60.1,21.0,22,30.32,10.0,NE,5.8,-,N/A,,Clear,40,2013-03-27 22:53:00
6:53 PM,57.0,24.1,28,30.31,10.0,NE,4.6,-,N/A,,Clear,50,2013-03-27 23:53:00
7:53 PM,45.0,26.1,48,30.32,10.0,Calm,Calm,-,N/A,,Clear,0,2013-03-28 00:53:00
8:53 PM,39.9,35.1,83,30.31,10.0,Calm,Calm,-,N/A,,Clear,0,2013-03-28 01:53:00
9:53 PM,41.0,35.1,79,30.32,10.0,Calm,Calm,-,N/A,,Clear,0,2013-03-28 02:53:00
10:53 PM,39.0,32.0,76,30.32,10.0,ESE,3.5,-,N/A,,Clear,110,2013-03-28 03:53:00
11:53 PM,41.0,32.0,70,30.33,10.0,SSE,4.6,-,N/A,,Clear,160,2013-03-28 04:53:00